"Sample Date","Sample Time","Sample Value","Units","Flow Rate","Sample Interval","Number Channels","Micron Size 0","Counts/Channel 0","Micron Size 1","Counts/Channel 1","Micron Size 2","Counts/Channel 2","Micron Size 3","Counts/Channel 3","Micron Size 4","Counts/Channel 4","Micron Size 5","Counts/Channel 5","Micron Size 6","Counts/Channel 6","Micron Size 7","Counts/Channel 7","Micron Size 8","Counts/Channel 8","Micron Size 9","Counts/Channel 9","Micron Size 10","Counts/Channel 10","Micron Size 11","Counts/Channel 11","Micron Size 12","Counts/Channel 12","Micron Size 13","Counts/Channel 13","Micron Size 14","Counts/Channel 14","Micron Size 15","Counts/Channel 15","Micron Size 16","Counts/Channel 16","Micron Size 17","Counts/Channel 17","Micron Size 18","Counts/Channel 18","Micron Size 19","Counts/Channel 19","Micron Size 20","Counts/Channel 20","Micron Size 21","Counts/Channel 21","Micron Size 22","Counts/Channel 22","Micron Size 23","Counts/Channel 23","Micron Size 24","Counts/Channel 24","Micron Size 25","Counts/Channel 25","Micron Size 26","Counts/Channel 26","Micron Size 27","Counts/Channel 27","Micron Size 28","Counts/Channel 28","Micron Size 29","Counts/Channel 29","Micron Size 30","Counts/Channel 30","Micron Size 31","Counts/Channel 31"
"04/09/08","00:00:05",13262.000,"cc",28192.705,6.00,6,0.100,7296.000,0.200,1859.000,0.300,1558.000,0.500,1770.000,1.000,779.000,5.000,0
"04/09/08","00:00:11",13316.000,"cc",28343.217,6.00,6,0.100,7461.000,0.200,1878.000,0.300,1532.000,0.500,1720.000,1.000,724.000,5.000,1.000
"04/09/08","00:00:17",13116.000,"cc",28250.250,6.00,6,0.100,7410.000,0.200,1771.000,0.300,1471.000,0.500,1718.000,1.000,746.000,5.000,0
"04/09/08","00:00:23",13590.000,"cc",28239.344,6.00,6,0.100,7539.000,0.200,1885.000,0.300,1632.000,0.500,1820.000,1.000,714.000,5.000,0
"04/09/08","00:00:29",13086.000,"cc",28300.688,6.00,6,0.100,7315.000,0.200,1789.000,0.300,1545.000,0.500,1724.000,1.000,713.000,5.000,0
"04/09/08","00:00:35",13431.000,"cc",28330.404,6.00,6,0.100,7491.000,0.200,1938.000,0.300,1560.000,0.500,1758.000,1.000,684.000,5.000,0
"04/09/08","00:00:41",13814.000,"cc",28240.566,6.00,6,0.100,7689.000,0.200,1923.000,0.300,1581.000,0.500,1862.000,1.000,759.000,5.000,0
"04/09/08","00:00:47",13841.000,"cc",28287.256,6.00,6,0.100,7605.000,0.200,1942.000,0.300,1660.000,0.500,1886.000,1.000,748.000,5.000,0
"04/09/08","00:00:53",14292.000,"cc",28328.590,6.00,6,0.100,7831.000,0.200,1986.000,0.300,1734.000,0.500,1938.000,1.000,803.000,5.000,0
"04/09/08","00:00:59",14241.000,"cc",28270.654,6.00,6,0.100,7832.000,0.200,2056.000,0.300,1664.000,0.500,1921.000,1.000,768.000,5.000,0
"04/09/08","00:01:05",14090.000,"cc",28415.322,6.00,6,0.100,7770.000,0.200,1953.000,0.300,1731.000,0.500,1894.000,1.000,742.000,5.000,0
"04/09/08","00:01:11",13866.000,"cc",28337.686,6.00,6,0.100,7511.000,0.200,1964.000,0.300,1678.000,0.500,1922.000,1.000,791.000,5.000,0
"04/09/08","00:01:17",14102.000,"cc",28281.315,6.00,6,0.100,7639.000,0.200,1949.000,0.300,1759.000,0.500,1938.000,1.000,817.000,5.000,0
"04/09/08","00:01:23",14121.000,"cc",28457.926,6.00,6,0.100,7744.000,0.200,1995.000,0.300,1668.000,0.500,1919.000,1.000,795.000,5.000,0
"04/09/08","00:01:29",14074.000,"cc",28272.260,6.00,6,0.100,7685.000,0.200,2005.000,0.300,1662.000,0.500,1951.000,1.000,771.000,5.000,0
"04/09/08","00:01:35",14693.000,"cc",28233.516,6.00,6,0.100,7941.000,0.200,2128.000,0.300,1777.000,0.500,2055.000,1.000,792.000,5.000,0
"04/09/08","00:01:41",14857.000,"cc",28157.772,6.00,6,0.100,8091.000,0.200,2154.000,0.300,1759.000,0.500,2062.000,1.000,791.000,5.000,0
"04/09/08","00:01:47",14363.000,"cc",28410.486,6.00,6,0.100,7743.000,0.200,2055.000,0.300,1788.000,0.500,1968.000,1.000,809.000,5.000,0
"04/09/08","00:01:53",13932.000,"cc",28353.268,6.00,6,0.100,7611.000,0.200,2022.000,0.300,1684.000,0.500,1922.000,1.000,693.000,5.000,0
"04/09/08","00:01:59",13696.000,"cc",28322.758,6.00,6,0.100,7668.000,0.200,1865.000,0.300,1565.000,0.500,1851.000,1.000,747.000,5.000,0
"04/09/08","00:02:05",13692.000,"cc",28408.291,6.00,6,0.100,7579.000,0.200,1917.000,0.300,1593.000,0.500,1895.000,1.000,708.000,5.000,0
"04/09/08","00:02:11",13873.000,"cc",28233.051,6.00,6,0.100,7672.000,0.200,1988.000,0.300,1613.000,0.500,1870.000,1.000,730.000,5.000,0
"04/09/08","00:02:17",13872.000,"cc",28263.096,6.00,6,0.100,7671.000,0.200,1932.000,0.300,1663.000,0.500,1846.000,1.000,760.000,5.000,0
"04/09/08","00:02:23",14253.000,"cc",28376.621,6.00,6,0.100,7862.000,0.200,1972.000,0.300,1689.000,0.500,1963.000,1.000,767.000,5.000,0
"04/09/08","00:02:29",13968.000,"cc",28303.338,6.00,6,0.100,7726.000,0.200,1963.000,0.300,1633.000,0.500,1881.000,1.000,765.000,5.000,0
"04/09/08","00:02:35",14033.000,"cc",28260.938,6.00,6,0.100,7703.000,0.200,1919.000,0.300,1693.000,0.500,1901.000,1.000,817.000,5.000,0
"04/09/08","00:02:41",13998.000,"cc",28281.326,6.00,6,0.100,7638.000,0.200,2017.000,0.300,1728.000,0.500,1863.000,1.000,752.000,5.000,0
"04/09/08","00:02:47",14241.000,"cc",28391.074,6.00,6,0.100,7818.000,0.200,2093.000,0.300,1725.000,0.500,1883.000,1.000,721.000,5.000,1.000
"04/09/08","00:02:53",14448.000,"cc",28379.883,6.00,6,0.100,7867.000,0.200,1991.000,0.300,1798.000,0.500,2026.000,1.000,765.000,5.000,1.000
"04/09/08","00:02:59",14417.000,"cc",28213.100,6.00,6,0.100,7786.000,0.200,2043.000,0.300,1724.000,0.500,2061.000,1.000,803.000,5.000,0
"04/09/08","00:03:05",14168.000,"cc",28246.117,6.00,6,0.100,7713.000,0.200,1983.000,0.300,1759.000,0.500,1919.000,1.000,793.000,5.000,1.000
"04/09/08","00:03:11",13823.000,"cc",28306.979,6.00,6,0.100,7622.000,0.200,1989.000,0.300,1636.000,0.500,1852.000,1.000,724.000,5.000,0
"04/09/08","00:03:17",14345.000,"cc",28424.883,6.00,6,0.100,7919.000,0.200,1997.000,0.300,1703.000,0.500,1928.000,1.000,798.000,5.000,0
"04/09/08","00:03:23",14680.000,"cc",28246.191,6.00,6,0.100,8035.000,0.200,2090.000,0.300,1751.000,0.500,1991.000,1.000,813.000,5.000,0
"04/09/08","00:03:29",14059.000,"cc",28338.221,6.00,6,0.100,7822.000,0.200,1902.000,0.300,1695.000,0.500,1864.000,1.000,775.000,5.000,1.000
"04/09/08","00:03:35",14420.000,"cc",28339.145,6.00,6,0.100,7830.000,0.200,1969.000,0.300,1765.000,0.500,2056.000,1.000,800.000,5.000,0
"04/09/08","00:03:41",14719.000,"cc",28348.334,6.00,6,0.100,7907.000,0.200,2169.000,0.300,1785.000,0.500,2056.000,1.000,802.000,5.000,0
"04/09/08","00:03:47",14482.000,"cc",28358.324,6.00,6,0.100,7807.000,0.200,2020.000,0.300,1714.000,0.500,2075.000,1.000,865.000,5.000,1.000
"04/09/08","00:03:53",14273.000,"cc",28366.277,6.00,6,0.100,7794.000,0.200,1985.000,0.300,1663.000,0.500,2029.000,1.000,802.000,5.000,0
"04/09/08","00:03:59",14326.000,"cc",28287.461,6.00,6,0.100,7757.000,0.200,1981.000,0.300,1755.000,0.500,2013.000,1.000,820.000,5.000,0
"04/09/08","00:04:05",14366.000,"cc",28265.576,6.00,6,0.100,7772.000,0.200,1997.000,0.300,1718.000,0.500,2088.000,1.000,791.000,5.000,0
"04/09/08","00:04:11",14473.000,"cc",28279.307,6.00,6,0.100,7782.000,0.200,2124.000,0.300,1775.000,0.500,2017.000,1.000,775.000,5.000,0
"04/09/08","00:04:17",14528.000,"cc",28250.131,6.00,6,0.100,7815.000,0.200,2051.000,0.300,1824.000,0.500,2029.000,1.000,809.000,5.000,0
"04/09/08","00:04:23",14895.000,"cc",28335.215,6.00,6,0.100,7963.000,0.200,2135.000,0.300,1854.000,0.500,2088.000,1.000,855.000,5.000,0
"04/09/08","00:04:29",14849.000,"cc",28427.549,6.00,6,0.100,8059.000,0.200,2072.000,0.300,1835.000,0.500,2052.000,1.000,831.000,5.000,0
"04/09/08","00:04:35",15013.000,"cc",28293.959,6.00,6,0.100,8121.000,0.200,2160.000,0.300,1798.000,0.500,2123.000,1.000,811.000,5.000,0
"04/09/08","00:04:41",14974.000,"cc",28289.012,6.00,6,0.100,8090.000,0.200,2135.000,0.300,1833.000,0.500,2072.000,1.000,844.000,5.000,0
"04/09/08","00:04:47",15579.000,"cc",28262.623,6.00,6,0.100,8501.000,0.200,2242.000,0.300,1831.000,0.500,2175.000,1.000,830.000,5.000,0
"04/09/08","00:04:53",15837.000,"cc",28320.709,6.00,6,0.100,8569.000,0.200,2305.000,0.300,1876.000,0.500,2215.000,1.000,872.000,5.000,0
"04/09/08","00:04:59",15451.000,"cc",28343.648,6.00,6,0.100,8548.000,0.200,2159.000,0.300,1859.000,0.500,2045.000,1.000,840.000,5.000,0
"04/09/08","00:05:05",15762.000,"cc",28341.820,6.00,6,0.100,8661.000,0.200,2200.000,0.300,1827.000,0.500,2209.000,1.000,864.000,5.000,1.000
"04/09/08","00:05:11",15429.000,"cc",28330.740,6.00,6,0.100,8638.000,0.200,2060.000,0.300,1836.000,0.500,2096.000,1.000,799.000,5.000,0
"04/09/08","00:05:17",15471.000,"cc",28419.869,6.00,6,0.100,8709.000,0.200,2134.000,0.300,1827.000,0.500,1991.000,1.000,808.000,5.000,2.000
"04/09/08","00:05:23",15444.000,"cc",28358.748,6.00,6,0.100,8660.000,0.200,2141.000,0.300,1809.000,0.500,2021.000,1.000,813.000,5.000,0
"04/09/08","00:05:29",15325.000,"cc",28200.672,6.00,6,0.100,8619.000,0.200,2127.000,0.300,1748.000,0.500,2023.000,1.000,808.000,5.000,0
"04/09/08","00:05:35",15338.000,"cc",28198.639,6.00,6,0.100,8698.000,0.200,2046.000,0.300,1753.000,0.500,2059.000,1.000,782.000,5.000,0
"04/09/08","00:05:41",15684.000,"cc",28374.168,6.00,6,0.100,8828.000,0.200,2161.000,0.300,1822.000,0.500,2050.000,1.000,823.000,5.000,0
"04/09/08","00:05:47",15110.000,"cc",28299.990,6.00,6,0.100,8535.000,0.200,2081.000,0.300,1672.000,0.500,2024.000,1.000,797.000,5.000,1.000
"04/09/08","00:05:53",15319.000,"cc",28263.652,6.00,6,0.100,8648.000,0.200,2012.000,0.300,1811.000,0.500,2040.000,1.000,808.000,5.000,0
"04/09/08","00:05:59",15657.000,"cc",28317.172,6.00,6,0.100,8797.000,0.200,2194.000,0.300,1781.000,0.500,2085.000,1.000,800.000,5.000,0
"04/09/08","00:06:05",15714.000,"cc",28349.184,6.00,6,0.100,8766.000,0.200,2147.000,0.300,1888.000,0.500,2061.000,1.000,852.000,5.000,0
"04/09/08","00:06:11",15888.000,"cc",28230.254,6.00,6,0.100,8952.000,0.200,2155.000,0.300,1814.000,0.500,2124.000,1.000,843.000,5.000,0
"04/09/08","00:06:17",15994.000,"cc",28404.008,6.00,6,0.100,8964.000,0.200,2240.000,0.300,1883.000,0.500,2120.000,1.000,787.000,5.000,0
"04/09/08","00:06:23",15571.000,"cc",28251.551,6.00,6,0.100,8879.000,0.200,2167.000,0.300,1758.000,0.500,1955.000,1.000,812.000,5.000,0
"04/09/08","00:06:29",15934.000,"cc",28258.828,6.00,6,0.100,8814.000,0.200,2217.000,0.300,1840.000,0.500,2219.000,1.000,844.000,5.000,0
"04/09/08","00:06:35",16313.000,"cc",28366.338,6.00,6,0.100,9033.000,0.200,2328.000,0.300,1933.000,0.500,2187.000,1.000,831.000,5.000,1.000
"04/09/08","00:06:41",16309.000,"cc",28322.645,6.00,6,0.100,9069.000,0.200,2278.000,0.300,1886.000,0.500,2214.000,1.000,861.000,5.000,1.000
"04/09/08","00:06:47",16529.000,"cc",28318.877,6.00,6,0.100,9192.000,0.200,2275.000,0.300,1930.000,0.500,2223.000,1.000,909.000,5.000,0
"04/09/08","00:06:53",16208.000,"cc",28304.711,6.00,6,0.100,9018.000,0.200,2284.000,0.300,1931.000,0.500,2134.000,1.000,841.000,5.000,0
"04/09/08","00:06:59",16056.000,"cc",28377.273,6.00,6,0.100,8947.000,0.200,2254.000,0.300,1882.000,0.500,2122.000,1.000,850.000,5.000,1.000
"04/09/08","00:07:05",16044.000,"cc",28266.356,6.00,6,0.100,8983.000,0.200,2250.000,0.300,1839.000,0.500,2139.000,1.000,833.000,5.000,0
"04/09/08","00:07:11",16218.000,"cc",28181.578,6.00,6,0.100,9143.000,0.200,2135.000,0.300,1900.000,0.500,2221.000,1.000,819.000,5.000,0
"04/09/08","00:07:17",16137.000,"cc",28320.592,6.00,6,0.100,9048.000,0.200,2220.000,0.300,1860.000,0.500,2207.000,1.000,802.000,5.000,0
"04/09/08","00:07:23",16599.000,"cc",28459.918,6.00,6,0.100,9228.000,0.200,2310.000,0.300,1926.000,0.500,2287.000,1.000,848.000,5.000,0
"04/09/08","00:07:29",15953.000,"cc",28376.676,6.00,6,0.100,8944.000,0.200,2143.000,0.300,1809.000,0.500,2200.000,1.000,856.000,5.000,1.000
"04/09/08","00:07:35",15916.000,"cc",28336.875,6.00,6,0.100,8933.000,0.200,2176.000,0.300,1824.000,0.500,2140.000,1.000,842.000,5.000,1.000
"04/09/08","00:07:41",16052.000,"cc",28451.195,6.00,6,0.100,9107.000,0.200,2150.000,0.300,1823.000,0.500,2131.000,1.000,841.000,5.000,0
"04/09/08","00:07:47",15769.000,"cc",28297.857,6.00,6,0.100,8905.000,0.200,2134.000,0.300,1754.000,0.500,2154.000,1.000,822.000,5.000,0
"04/09/08","00:07:53",15605.000,"cc",28278.471,6.00,6,0.100,8733.000,0.200,2205.000,0.300,1749.000,0.500,2116.000,1.000,802.000,5.000,0
"04/09/08","00:07:59",15636.000,"cc",28285.697,6.00,6,0.100,8765.000,0.200,2102.000,0.300,1806.000,0.500,2164.000,1.000,799.000,5.000,0
"04/09/08","00:08:05",16044.000,"cc",28329.742,6.00,6,0.100,9001.000,0.200,2219.000,0.300,1828.000,0.500,2201.000,1.000,795.000,5.000,0
"04/09/08","00:08:11",15734.000,"cc",28275.469,6.00,6,0.100,8742.000,0.200,2104.000,0.300,1804.000,0.500,2205.000,1.000,879.000,5.000,0
"04/09/08","00:08:17",16251.000,"cc",28257.338,6.00,6,0.100,9137.000,0.200,2280.000,0.300,1893.000,0.500,2123.000,1.000,818.000,5.000,0
"04/09/08","00:08:23",16199.000,"cc",28289.088,6.00,6,0.100,8977.000,0.200,2289.000,0.300,1898.000,0.500,2137.000,1.000,898.000,5.000,0
"04/09/08","00:08:29",16422.000,"cc",28425.879,6.00,6,0.100,9091.000,0.200,2283.000,0.300,1894.000,0.500,2279.000,1.000,875.000,5.000,0
"04/09/08","00:08:35",16892.000,"cc",28350.352,6.00,6,0.100,9247.000,0.200,2417.000,0.300,2013.000,0.500,2302.000,1.000,913.000,5.000,0
"04/09/08","00:08:41",16333.000,"cc",28280.846,6.00,6,0.100,9162.000,0.200,2217.000,0.300,1893.000,0.500,2215.000,1.000,846.000,5.000,0
"04/09/08","00:08:47",15604.000,"cc",28397.174,6.00,6,0.100,8744.000,0.200,2149.000,0.300,1817.000,0.500,2091.000,1.000,803.000,5.000,0
"04/09/08","00:08:53",15053.000,"cc",28156.395,6.00,6,0.100,8595.000,0.200,2081.000,0.300,1624.000,0.500,2030.000,1.000,723.000,5.000,0
"04/09/08","00:08:59",15648.000,"cc",28268.818,6.00,6,0.100,8863.000,0.200,2143.000,0.300,1757.000,0.500,2086.000,1.000,799.000,5.000,0
"04/09/08","00:09:05",16098.000,"cc",28294.898,6.00,6,0.100,9023.000,0.200,2200.000,0.300,1912.000,0.500,2160.000,1.000,803.000,5.000,0
"04/09/08","00:09:11",16224.000,"cc",28227.135,6.00,6,0.100,9137.000,0.200,2175.000,0.300,1890.000,0.500,2203.000,1.000,819.000,5.000,0
"04/09/08","00:09:17",15568.000,"cc",28338.973,6.00,6,0.100,8726.000,0.200,2127.000,0.300,1797.000,0.500,2090.000,1.000,827.000,5.000,1.000
"04/09/08","00:09:23",16021.000,"cc",28314.516,6.00,6,0.100,8963.000,0.200,2236.000,0.300,1873.000,0.500,2130.000,1.000,819.000,5.000,0
"04/09/08","00:09:29",15355.000,"cc",28281.305,6.00,6,0.100,8757.000,0.200,2147.000,0.300,1697.000,0.500,1989.000,1.000,765.000,5.000,0
"04/09/08","00:09:35",15521.000,"cc",28370.330,6.00,6,0.100,8766.000,0.200,2133.000,0.300,1740.000,0.500,2115.000,1.000,767.000,5.000,0
"04/09/08","00:09:41",15480.000,"cc",28304.648,6.00,6,0.100,8652.000,0.200,2177.000,0.300,1779.000,0.500,2072.000,1.000,800.000,5.000,0
"04/09/08","00:09:47",15563.000,"cc",28323.231,6.00,6,0.100,8766.000,0.200,2155.000,0.300,1785.000,0.500,2078.000,1.000,779.000,5.000,0
"04/09/08","00:09:53",15467.000,"cc",28388.660,6.00,6,0.100,8692.000,0.200,2139.000,0.300,1802.000,0.500,2038.000,1.000,796.000,5.000,0
"04/09/08","00:09:59",15571.000,"cc",28278.070,6.00,6,0.100,8719.000,0.200,2161.000,0.300,1709.000,0.500,2124.000,1.000,858.000,5.000,0
"04/09/08","00:10:05",15207.000,"cc",28300.756,6.00,6,0.100,8630.000,0.200,2122.000,0.300,1724.000,0.500,2004.000,1.000,727.000,5.000,0
"04/09/08","00:10:11",15387.000,"cc",28279.320,6.00,6,0.100,8744.000,0.200,2082.000,0.300,1759.000,0.500,2030.000,1.000,772.000,5.000,0
"04/09/08","00:10:17",16381.000,"cc",28386.801,6.00,6,0.100,9030.000,0.200,2273.000,0.300,1968.000,0.500,2236.000,1.000,874.000,5.000,0
"04/09/08","00:10:23",16140.000,"cc",28207.680,6.00,6,0.100,9019.000,0.200,2214.000,0.300,1884.000,0.500,2193.000,1.000,830.000,5.000,0
"04/09/08","00:10:29",15669.000,"cc",28277.781,6.00,6,0.100,8795.000,0.200,2204.000,0.300,1835.000,0.500,2106.000,1.000,729.000,5.000,0
"04/09/08","00:10:35",15871.000,"cc",28400.908,6.00,6,0.100,9008.000,0.200,2206.000,0.300,1758.000,0.500,2094.000,1.000,805.000,5.000,0
"04/09/08","00:10:41",15941.000,"cc",28311.404,6.00,6,0.100,8798.000,0.200,2209.000,0.300,1890.000,0.500,2177.000,1.000,867.000,5.000,0
"04/09/08","00:10:47",16252.000,"cc",28322.576,6.00,6,0.100,8921.000,0.200,2264.000,0.300,1899.000,0.500,2289.000,1.000,879.000,5.000,0
"04/09/08","00:10:53",15536.000,"cc",28422.447,6.00,6,0.100,8777.000,0.200,2153.000,0.300,1762.000,0.500,2051.000,1.000,793.000,5.000,0
"04/09/08","00:10:59",15245.000,"cc",28403.981,6.00,6,0.100,8645.000,0.200,2061.000,0.300,1738.000,0.500,2038.000,1.000,763.000,5.000,0
"04/09/08","00:11:05",15189.000,"cc",28265.789,6.00,6,0.100,8552.000,0.200,2088.000,0.300,1767.000,0.500,2007.000,1.000,775.000,5.000,0
"04/09/08","00:11:11",15579.000,"cc",28241.227,6.00,6,0.100,8707.000,0.200,2155.000,0.300,1847.000,0.500,2035.000,1.000,835.000,5.000,0
"04/09/08","00:11:17",15088.000,"cc",28151.277,6.00,6,0.100,8503.000,0.200,2112.000,0.300,1688.000,0.500,2050.000,1.000,734.000,5.000,1.000
"04/09/08","00:11:23",15116.000,"cc",28273.955,6.00,6,0.100,8477.000,0.200,2118.000,0.300,1776.000,0.500,1977.000,1.000,768.000,5.000,0
"04/09/08","00:11:29",15326.000,"cc",28316.215,6.00,6,0.100,8644.000,0.200,2153.000,0.300,1794.000,0.500,1945.000,1.000,790.000,5.000,0
"04/09/08","00:11:35",15724.000,"cc",28379.053,6.00,6,0.100,8730.000,0.200,2257.000,0.300,1844.000,0.500,2054.000,1.000,839.000,5.000,0
"04/09/08","00:11:41",15131.000,"cc",28468.793,6.00,6,0.100,8536.000,0.200,2016.000,0.300,1718.000,0.500,2030.000,1.000,829.000,5.000,2.000
"04/09/08","00:11:47",14857.000,"cc",28212.887,6.00,6,0.100,8454.000,0.200,1934.000,0.300,1698.000,0.500,2030.000,1.000,741.000,5.000,0
"04/09/08","00:11:53",14152.000,"cc",28320.154,6.00,6,0.100,8162.000,0.200,1893.000,0.300,1640.000,0.500,1807.000,1.000,650.000,5.000,0
"04/09/08","00:11:59",14258.000,"cc",28305.232,6.00,6,0.100,8129.000,0.200,1931.000,0.300,1632.000,0.500,1812.000,1.000,754.000,5.000,0
"04/09/08","00:12:05",14656.000,"cc",28306.918,6.00,6,0.100,8342.000,0.200,1984.000,0.300,1678.000,0.500,1922.000,1.000,730.000,5.000,0
"04/09/08","00:12:11",14646.000,"cc",28328.688,6.00,6,0.100,8163.000,0.200,2046.000,0.300,1719.000,0.500,1986.000,1.000,732.000,5.000,0
"04/09/08","00:12:17",15292.000,"cc",28285.086,6.00,6,0.100,8593.000,0.200,2165.000,0.300,1754.000,0.500,2052.000,1.000,727.000,5.000,1.000
"04/09/08","00:12:23",16162.000,"cc",28328.387,6.00,6,0.100,9031.000,0.200,2243.000,0.300,1835.000,0.500,2205.000,1.000,848.000,5.000,0
"04/09/08","00:12:29",16159.000,"cc",28287.332,6.00,6,0.100,9022.000,0.200,2252.000,0.300,1901.000,0.500,2180.000,1.000,804.000,5.000,0
"04/09/08","00:12:35",16117.000,"cc",28295.234,6.00,6,0.100,8922.000,0.200,2230.000,0.300,1979.000,0.500,2179.000,1.000,807.000,5.000,0
"04/09/08","00:12:41",16364.000,"cc",28374.305,6.00,6,0.100,8925.000,0.200,2333.000,0.300,1949.000,0.500,2214.000,1.000,943.000,5.000,0
"04/09/08","00:12:47",16366.000,"cc",28441.598,6.00,6,0.100,8947.000,0.200,2363.000,0.300,1899.000,0.500,2271.000,1.000,885.000,5.000,1.000
"04/09/08","00:12:53",16768.000,"cc",28271.279,6.00,6,0.100,9145.000,0.200,2396.000,0.300,2027.000,0.500,2359.000,1.000,841.000,5.000,0
"04/09/08","00:12:59",16620.000,"cc",28343.643,6.00,6,0.100,9136.000,0.200,2345.000,0.300,1955.000,0.500,2269.000,1.000,914.000,5.000,1.000
"04/09/08","00:13:05",16348.000,"cc",28373.818,6.00,6,0.100,9049.000,0.200,2337.000,0.300,1874.000,0.500,2216.000,1.000,872.000,5.000,0
"04/09/08","00:13:11",15828.000,"cc",28288.320,6.00,6,0.100,8751.000,0.200,2207.000,0.300,1888.000,0.500,2119.000,1.000,862.000,5.000,1.000
"04/09/08","00:13:17",15525.000,"cc",28329.213,6.00,6,0.100,8666.000,0.200,2172.000,0.300,1796.000,0.500,2089.000,1.000,802.000,5.000,0
"04/09/08","00:13:23",15149.000,"cc",28259.945,6.00,6,0.100,8532.000,0.200,2100.000,0.300,1763.000,0.500,1970.000,1.000,784.000,5.000,0
"04/09/08","00:13:29",15341.000,"cc",28188.746,6.00,6,0.100,8603.000,0.200,2109.000,0.300,1764.000,0.500,2123.000,1.000,742.000,5.000,0
"04/09/08","00:13:35",15359.000,"cc",28230.059,6.00,6,0.100,8489.000,0.200,2148.000,0.300,1823.000,0.500,2099.000,1.000,800.000,5.000,0
"04/09/08","00:13:41",15179.000,"cc",28343.660,6.00,6,0.100,8571.000,0.200,2090.000,0.300,1754.000,0.500,1976.000,1.000,788.000,5.000,0
"04/09/08","00:13:47",15039.000,"cc",28454.330,6.00,6,0.100,8530.000,0.200,2048.000,0.300,1746.000,0.500,1980.000,1.000,735.000,5.000,0
"04/09/08","00:13:53",15003.000,"cc",28296.791,6.00,6,0.100,8513.000,0.200,2065.000,0.300,1687.000,0.500,1968.000,1.000,770.000,5.000,0
"04/09/08","00:13:59",15298.000,"cc",28281.211,6.00,6,0.100,8479.000,0.200,2152.000,0.300,1794.000,0.500,2096.000,1.000,776.000,5.000,1.000
"04/09/08","00:14:05",15233.000,"cc",28189.557,6.00,6,0.100,8443.000,0.200,2123.000,0.300,1821.000,0.500,2080.000,1.000,766.000,5.000,0
"04/09/08","00:14:11",15393.000,"cc",28493.289,6.00,6,0.100,8545.000,0.200,2166.000,0.300,1781.000,0.500,2125.000,1.000,776.000,5.000,0
"04/09/08","00:14:17",14994.000,"cc",28333.764,6.00,6,0.100,8368.000,0.200,2123.000,0.300,1733.000,0.500,2022.000,1.000,748.000,5.000,0
"04/09/08","00:14:23",15315.000,"cc",28199.359,6.00,6,0.100,8513.000,0.200,2080.000,0.300,1828.000,0.500,2085.000,1.000,809.000,5.000,0
"04/09/08","00:14:29",15779.000,"cc",28277.615,6.00,6,0.100,8905.000,0.200,2148.000,0.300,1801.000,0.500,2114.000,1.000,811.000,5.000,0
"04/09/08","00:14:35",14828.000,"cc",28453.100,6.00,6,0.100,8306.000,0.200,2040.000,0.300,1729.000,0.500,1993.000,1.000,760.000,5.000,0
"04/09/08","00:14:41",14433.000,"cc",28257.410,6.00,6,0.100,8105.000,0.200,2047.000,0.300,1633.000,0.500,1893.000,1.000,755.000,5.000,0
"04/09/08","00:14:47",15144.000,"cc",28357.772,6.00,6,0.100,8393.000,0.200,2082.000,0.300,1843.000,0.500,2035.000,1.000,791.000,5.000,0
"04/09/08","00:14:53",16845.000,"cc",28247.113,6.00,6,0.100,9299.000,0.200,2472.000,0.300,2052.000,0.500,2204.000,1.000,818.000,5.000,0
"04/09/08","00:14:59",18606.000,"cc",28302.604,6.00,6,0.100,10028.000,0.200,2797.000,0.300,2329.000,0.500,2553.000,1.000,899.000,5.000,0
"04/09/08","00:15:05",15074.000,"cc",28274.166,6.00,6,0.100,8385.000,0.200,2157.000,0.300,1726.000,0.500,2037.000,1.000,769.000,5.000,0
"04/09/08","00:15:11",14367.000,"cc",28417.090,6.00,6,0.100,8133.000,0.200,1910.000,0.300,1596.000,0.500,1994.000,1.000,734.000,5.000,0
"04/09/08","00:15:17",14300.000,"cc",28307.041,6.00,6,0.100,8080.000,0.200,1957.000,0.300,1652.000,0.500,1859.000,1.000,752.000,5.000,0
"04/09/08","00:15:23",14185.000,"cc",28288.180,6.00,6,0.100,7998.000,0.200,1944.000,0.300,1620.000,0.500,1901.000,1.000,722.000,5.000,0
"04/09/08","00:15:29",14386.000,"cc",28224.518,6.00,6,0.100,8151.000,0.200,1994.000,0.300,1655.000,0.500,1857.000,1.000,729.000,5.000,0
"04/09/08","00:15:35",14557.000,"cc",28407.176,6.00,6,0.100,8093.000,0.200,2053.000,0.300,1661.000,0.500,1964.000,1.000,786.000,5.000,0
"04/09/08","00:15:41",14122.000,"cc",28318.076,6.00,6,0.100,7913.000,0.200,1912.000,0.300,1620.000,0.500,1928.000,1.000,749.000,5.000,0
"04/09/08","00:15:47",14547.000,"cc",28322.563,6.00,6,0.100,8116.000,0.200,2007.000,0.300,1683.000,0.500,1970.000,1.000,771.000,5.000,0
"04/09/08","00:15:53",14206.000,"cc",28232.520,6.00,6,0.100,8072.000,0.200,1881.000,0.300,1635.000,0.500,1918.000,1.000,699.000,5.000,1.000
"04/09/08","00:15:59",14543.000,"cc",28313.717,6.00,6,0.100,8214.000,0.200,1960.000,0.300,1654.000,0.500,1974.000,1.000,741.000,5.000,0
"04/09/08","00:16:05",14481.000,"cc",28266.795,6.00,6,0.100,8200.000,0.200,1955.000,0.300,1649.000,0.500,1927.000,1.000,750.000,5.000,0
"04/09/08","00:16:11",13887.000,"cc",28333.154,6.00,6,0.100,7792.000,0.200,1887.000,0.300,1627.000,0.500,1867.000,1.000,714.000,5.000,0
"04/09/08","00:16:17",14520.000,"cc",28389.186,6.00,6,0.100,8191.000,0.200,1946.000,0.300,1666.000,0.500,1931.000,1.000,786.000,5.000,0
"04/09/08","00:16:23",14689.000,"cc",28298.672,6.00,6,0.100,8233.000,0.200,2107.000,0.300,1719.000,0.500,1907.000,1.000,723.000,5.000,0
"04/09/08","00:16:29",14846.000,"cc",28283.992,6.00,6,0.100,8231.000,0.200,1975.000,0.300,1773.000,0.500,2014.000,1.000,853.000,5.000,0